STARLINK-2609

operational
NORAD ID: 48373 Int'l Des: 2021-038 Owner: SPXS Country: US Constellation: starlink
LEOCIRCULARSTARLINK_TYPE

Über STARLINK-2609

Beschreibung wird geladen...

Live-Position

3D-Globus wird geladen...

Nächste Überflüge

Höhenverlauf

Altitude vs Time

uPlot chart will show altitude changes over time

Zweizeiliger Elementsatz

1 48373U 21038W 25250.83584408 .00003201 00000-0 23368-3 0 9994
2 48373 53.0533 92.4790 0001308 93.3814 266.7325 15.06403469239606
Epoch: 7. Sept. 2025 • Age: 29 hours

Aktueller Status

Höhe 547.6 km
Geschwindigkeit 7.59 km/s
Subsatellitenpunkt 23.73°N, 105.13°E
Startdatum 4. Mai 2021
Alter 4.3 years
Typ internet

Technische Details

Klassifizierung Payload
Masse 260.00 kg
Trockenmasse 248.00 kg
Gesamtmasse 260.00 kg
Länge 0.20 m
Durchmesser 2.80 m
Spannweite 9.00 m
Form Box + pan
Hersteller SPXS
Bus-Typ Starlink
Phasenstatus In Orbit
Besitzer/Staat SPXS/US

Große Konstellationen

Loading constellations...